Terminal Aerodrome Forecast
Issued by NWS Jackson, MS

Home | Current Version | Previous Version | Text Only | Print | Product List | Glossary On
Versions: 1 2 3 4 5 6 7 8 9 10 11 12 13 14 15
000
FTUS44 KJAN 261100
TAFGLH
TAF
KGLH 261120Z 2612/2712 18006KT P6SM SKC
     FM261400 21017G29KT P6SM SCT200
     FM262100 27010KT P6SM SKC
     FM270600 31008KT P6SM SKC=

USA.gov is the U.S. government's official web portal to all federal, state and local government web resources and services.